Back to catalog

ARIANE 5 R/B

AliveGTO
NORAD 39080·ROCKET BODY·🇫🇷 France

Launched Feb 7, 2013 from Guiana Space Centre

Loading…

TLE

StaleSource: Space-Track

Epoch: Sep 12, 2026, 03:40 UTC

1 39080U 13006C   26255.15320959  .00000656  00000-0  52117-3 0  9990
2 39080   6.5299 309.4934 7126725  75.2644 348.2133  2.45872580117029

Track ARIANE 5 R/B in real time with AllMySat

Download on the App Store